User: anonymous   Login
Location: Columbia
(38.9520°N, 92.3340°W)
Time: 20:51:15
(UTC-05:00)
Language:

Cosmos 158 Rocket - Orbit

View from above orbital plane
View from above orbital plane
View from above satellite
View from above satellite

Ground track
Ground track

The orbit data is extracted from the following two-line orbital elements,

1  2802U 67045B   17290.52447601 +.00000014 +00000-0 +12257-4 0  9998
2  2802 074.0101 298.9492 0067499 323.0597 036.5920 14.43665142646630
Epoch (UTC): 17 October 2017 12:35:14
Eccentricity: 0.0067499
inclination: 74.0101°
perigee height: 698 km
apogee height: 794 km
right ascension of ascending node: 298.9492°
argument of perigee: 323.0597°
revolutions per day: 14.43665142
mean anomaly at epoch: 36.5920°
orbit number at epoch: 64663

The dashed part of the orbit path shows where the satellite is in the earth's shadow,  

DLR